Location: Wingville
(42.9917°N, 90.4915°W)
Time: 17:18:23
(UTC+00:00)

EO-79 - Pass Details

Date: 04 July 2022
Orbit: 588 x 603 km, 98.0° (Epoch: 17 August)

Event Time Altitude Azimuth Distance (km) Brightness Sun altitude
Rises 07:54:17 0° 11° (N) 2,858 ? -19.6°
Reaches altitude 10° 07:56:27 10° 10° (N) 1,953 ? -19.4°
Maximum altitude 08:00:41 76° 286° (WNW) 625 ? -19.1°
Enters shadow 08:01:56 45° 209° (SSW) 826 ? -19.0°
